Back to catalog

THORAD AGENA D DEB

AliveLEO
NORAD 6766·DEBRIS·🇺🇸 United States

Launched Apr 8, 1970 from Vandenberg Space Force Base

Loading…

Next Passes (next 24 hours)

TLE

FreshSource: Space-Track

Epoch: Sep 13, 2026, 16:27 UTC

1 06766U 70025NH  26256.68568984  .00001001  00000-0  58917-3 0  9999
2 06766 100.1585 314.2548 0075668 210.7062 148.9665 14.09441516847962

Track THORAD AGENA D DEB in real time with AllMySat

Download on the App Store